www.pogodaiklimat.ru

Погода и климат >> Архив погоды >> Пакистан >> Sibi


ПОГОДА в Sibi

  • Прогноз погоды в Sibi
  • Монитор погоды в Sibi
  • Климат города

АРХИВ ПОГОДЫ в Sibi

Время (UTC), дата Ветер
(напр.,м/с)
 
Видим.   Явления Облачность Т
(С)
Тd
(С)
f
(%)
Тe
(С)
Тes
(С)
Комфортность P
(гПа)
Po
(гПа)
Тmin
(С)
Tmax
(С)
R
(мм)
R24
(мм)
S
(см)
21 18.06 штиль 0 4000 м 5/5 300 м
[Sc]
+33.3 +24.4 60 +46 +46 опасность
перегрева
995.5 988.0
00 19.06 штиль 0 4000 м 5/5 300 м
[Sc]
+31.1 +23.3 63 +42 +42 опасность
перегрева
994.7 980.0
03 19.06 штиль 0 10 км 5/5 1200 м
[Sc]
+34.4 +23.1 52 +45 +48 опасность
перегрева
996.7 982.1 +27.0
06 19.06 штиль 0 50 км ?/? +37.7 +20.2 36 +21 +20 комфорт 1002.0 995.1
09 19.06 штиль 0 10 км ясно +40.6 +25.4 43 +54 +80 опасность
перегрева
994.3 1000.0
12 19.06 ЮЗ 1 10 км ясно +42.8 +27.2 42 +59 +66 опасность
перегрева
992.0 977.9 +45.1
15 19.06 ЮЗ 2 4000 м ясно +41.1 +26.8 45 +57 +57 опасность
перегрева
992.7 993.0
18 19.06 ЮВ 2 4000 м ясно +35.0 +26.8 63 +53 +53 опасность
перегрева
995.2 1000.0
21 19.06 штиль 0 4000 м ясно +32.8 +26.1 68 +49 +49 опасность
перегрева
994.5 1000.0
00 20.06 штиль 0 4000 м ясно +30.6 +24.1 68 +42 +42 опасность
перегрева
994.1 979.3
03 20.06 штиль 0 10 км ясно +33.9 +25.7 62 +49 +56 опасность
перегрева
995.6 980.9 +26.1
06 20.06 штиль 0 10 км ясно +39.4 +25.8 46 +53 +80 опасность
перегрева
998.1 998.0
09 20.06 штиль 0 10 км ясно +44.4 +27.9 40 +62 +88 опасность
перегрева
994.9 995.0
12 20.06 штиль 0 10 км ясно +46.7 +28.0 36 +64 +72 опасность
перегрева
992.0 992.5 +49.0
15 20.06 ЮЗ 2 4000 м ясно +42.8 +27.6 43 +60 +60 опасность
перегрева
993.4 993.0
18 20.06 штиль 0 50 км {туман} ?/? +28.0 998.5 999.0
21 20.06 штиль 0 4000 м ясно +37.8 +25.6 50 +52 +52 опасность
перегрева
995.9 1000.0
00 21.06 штиль 0 50 км ?/? +38.8 +12 +10 995.6 1016.0
03 21.06 штиль 0 10 км ясно +37.2 +24.4 48 +49 +57 опасность
перегрева
996.8 1010.7 +30.1
06 21.06 штиль 0 10 км ясно +39.4 +26.0 47 +54 +81 опасность
перегрева
998.9 1000.0
09 21.06 ЮВ 1 10 км ясно +42.8 +28.4 45 +62 +85 опасность
перегрева
995.5 1000.0
12 21.06 ЮЗ 1 10 км ясно +45.0 +23.9 31 +55 +62 опасность
перегрева
993.1 1000.0 +47.5
15 21.06 штиль 0 4000 м ясно +42.2 +27.2 43 +59 +59 опасность
перегрева
993.9 1000.0
18 21.06 штиль 0 4000 м ясно +39.4 +25.8 46 +53 +53 опасность
перегрева
995.2 1000.0
21 21.06 штиль 0 4000 м ясно +36.7 +23.8 48 +48 +48 опасность
перегрева
995.0 989.7
00 22.06 штиль 0 4000 м ясно +34.4 +23.9 54 +46 +46 опасность
перегрева
994.4 979.8
03 22.06 штиль 0 10 км ясно +36.1 +23.2 48 +47 +54 опасность
перегрева
995.6 981.1 +31.0
06 22.06 штиль 0 10 км ясно +40.0 +24.8 42 +52 +78 опасность
перегрева
996.4 996.0
09 22.06 ЮЗ 2 10 км ясно +43.3 +25.8 38 +57 +76 опасность
перегрева
994.4 994.0
12 22.06 ЮЗ 2 10 км ясно +43.3 +25.8 38 +57 +62 опасность
перегрева
990.1 976.1 +47.0
15 22.06 штиль 0 4000 м ясно +42.2 +23.0 34 +51 +51 опасность
перегрева
990.7 991.0
18 22.06 ЮЗ 3 4000 м ясно +40.0 +22.2 36 +48 +48 опасность
перегрева
993.0 993.0
21 22.06 штиль 0 4000 м ясно +37.8 +21.4 39 +45 +45 опасность
перегрева
992.7 993.0
00 23.06 штиль 0 50 км дождь ?/? +37.4 +21.4 40 1001.0 983.2
03 23.06 штиль 0 10 км ясно +38.3 +22.0 39 +46 +54 опасность
перегрева
993.8 979.5 +32.1
06 23.06 штиль 0 10 км ясно +40.0 +23.1 38 +49 +75 опасность
перегрева
997.6 998.0
09 23.06 штиль 0 10 км ясно +42.2 +24.8 38 +54 +80 опасность
перегрева
995.5 996.0
12 23.06 ЮЗ 3 10 км ясно +44.4 +25.4 35 +57 +62 опасность
перегрева
991.6 997.7 +48.0
15 23.06 штиль 0 4000 м ясно +41.7 +22.4 33 +49 +49 опасность
перегрева
993.0 1000.0
18 23.06 штиль 0 4000 м ясно +38.9 +21.0 36 +72 +72 опасность
перегрева
994.7 1000.0
21 23.06 штиль 0 4000 м ясно +36.7 +20.3 39 +43 +43 опасность
перегрева
994.0 989.1
00 24.06 штиль 0 4000 м ясно +34.4 +19.6 42 +40 +40 очень
душно
993.4 978.8
03 24.06 штиль 0 10 км ясно +37.2 +21.0 39 +44 +52 опасность
перегрева
995.0 980.6 +30.5
06 24.06 штиль 0 10 км ясно +40.6 +23.7 38 +51 +77 опасность
перегрева
996.3 996.0
09 24.06 штиль 0 10 км ясно +43.3 +25.8 38 +57 +83 опасность
перегрева
994.2 994.0
12 24.06 штиль 0 10 км ясно +45.6 +25.9 34 +59 +67 опасность
перегрева
990.4 976.5 +48.5
18 24.06 штиль 0 4000 м ясно +39.4 +23.3 40 +49 +49 опасность
перегрева
993.0 1000.0
21 24.06 штиль 0 50 км ?/? 1013.0 1013.0
00 25.06 штиль 0 50 км слабая морось ?/? +24.8 +30.1 100 +35 +35 очень
душно
1011.6 1000.0
03 25.06 штиль 0 10 км ясно +38.3 +22.0 39 +46 +54 опасность
перегрева
993.2 978.9 +31.1
06 25.06 штиль 0 10 км ясно +41.1 +23.5 37 +51 +77 опасность
перегрева
996.7 997.0
09 25.06 штиль 0 50 км ?/? 1016.2 1016.0
12 25.06 штиль 0 10 км ясно +45.6 +25.9 34 +59 +67 опасность
перегрева
990.0 976.1 +48.5
15 25.06 штиль 0 4000 м ясно +42.2 +23.0 34 +51 +51 опасность
перегрева
991.1 1000.0
18 25.06 ЮЗ 2 4000 м ясно +38.3 +22.9 41 +47 +47 опасность
перегрева
992.2 1000.0

 

Местоположение метеостанции Sibi (Пакистан): широта 29.55 долгота 67.88 высота над уровнем моря 134 м.

В архиве по умолчанию представлена погода в Sibi за последнюю неделю. Архивные данные за месяц целиком и за предыдущие месяцы, начиная с января 2011 года, Вы можете получить, выбрав интересующий диапазон дат из раскрывающегося списка и нажав кнопку "Ввод!".


*Определитесь, кто Вы:
робот инопланетянин человек

Внимание! Время в таблицах - всемирное. Для получения местного времени необходимо прибавить поправку, которая в Sibi равна 5 ч.

Смотрите также архив погоды в соседних городах и на ближайших метеорологических станциях:

Погода в Quetta Airport (Пакистан) (124 км)
Погода в Kalat (Пакистан) (139 км)
Погода в Jacobabad (Пакистан) (150 км)
Погода в Barkhan (Пакистан) (181 км)
Погода в Khuzdar (Пакистан) (227 км)
Погода в Rohri (Пакистан) (232 км)
Погода в Zhob (Пакистан) (252 км)
Погода в Khanpur (Пакистан) (290 км)
Погода в Kandahar (Афганистан) (292 км)
Погода в Pad Idan (Пакистан) (301 км)

Пояснения к столбцам:

Ветер - указаны скорость ветра в м/с - средняя за 10 мин, порывы в срок и между сроками (в фигурных скобках) и направление, откуда дует ветер: С - северный, СВ - северо-восточный, В - восточный, ЮВ - юго-восточный, Ю - южный, ЮЗ - юго-западный, З - западный, СЗ - северо-западный.
Видимость - горизонтальная дальность видимости в метрах или километрах. При видимости от 1 до 10 км при отсутствии осадков обычно наблюдается дымка, при ухудшении видимости до 1 км и менее - туман. В сухую погоду видимость может ухудшаться дымом, пылью или мглою.
Явления - указаны атмосферные явления, наблюдавшиеся в срок или в последний час перед сроком; фигурными скобками обозначены явления, наблюдавшиеся между сроками (за 1-3 часа до срока); квадратными скобками обозначены град или гололедные отложения с указанием их диаметра в мм.
Облачность - указаны через наклонную черту общая и нижняя облачность в баллах и высота нижней границы облаков в метрах; квадратными скобками обозначены формы облаков: Ci - перистые, Cs - перисто-слоистые, Cc - перисто-кучевые, Ac - высококучевые, As - высокослоистые, Sc - слоисто-кучевые, Ns - слоисто-дождевые, Cu - кучевые, Cb - кучево-дождевые. Подробнее классификацию облаков см. в Атласе облаков (PDF).
T - Температура воздуха - температура, измеренная на высоте 2 м над землей.
Td - Температура точки росы - температура, при понижении до которой содержащийся в воздухе водяной пар достигнет насыщения.
f - Относительная влажность воздуха - влажноcть воздуха, измеренная на высоте 2 м над землей.
Te - Эффективная температура - температура, которую ощущает одетый по сезону человек в тени. Характеристика душности погоды. При расчете учитывается влияние влажности воздуха и скорости ветра на теплоощущения человека.
Tes - Эффективная температура на солнце - температура, которую ощущает человек, с поправкой на солнечный нагрев. Характеристика знойности погоды. Зависит от высоты солнца над горизонтом, облачности и скорости ветра. Ночью, в пасмурную погоду, а также при ветре 12 м/с и более поправка равна нулю.
P - Атмосферное давление - приведенное к уровню моря атмосферное давление.
Po - Атмосферное давление - измеренное на уровне метеостанции атмосферное давление.
Tmin - Минимальная температура - минимум температуры воздуха на высоте 2 м над землей.
Tmax - Максимальная температура - максимум температуры воздуха на высоте 2 м над землей.
R - Количество осадков - Количество выпавших осадков за период времени, мм. При наведении курсора мыши на число - период времени, за который выпало указанное количество осадков.
R24 - Количество осадков - Количество выпавших осадков за 24 часа, мм.
S - Снежный покров - Высота снежного покрова, см. При наведении курсора мыши на число - состояние снежного покрова и степень покрытия местности в баллах.